Location: Unspecified
(35.7250°N, 0.0000°E)
Time: 11:01:56
(UTC+00:00)

Vanguard 1 - Pass Details

Date: 27 June 2019
Orbit: 653 x 3830 km, 34.3° (Epoch: 22 July)

Event Time Altitude Azimuth Distance (km) Brightness Sun altitude
Rises 02:40:49 0° 256° (WSW) 7,889 - -20.1°
Exits shadow 02:44:01 - 256° (WSW) 7,220 14.0 -19.7°
Reaches altitude 10° 02:46:32 10° 256° (WSW) 6,674 13.8 -19.4°
Maximum altitude 03:07:06 82° 172° (S) 2,538 12.0 -16.6°
Drops below altitude 10° 03:18:18 10° 87° (E) 3,934 13.9 -15.0°
Sets 03:20:46 0° 86° (E) 4,619 14.3 -14.7°
